Погода Саран-Пауль

Погода Саран-Пауль : погода сейчас, прогноз погоды и архив. Всё, что Вы хотите узнать о погоде Саран-Пауль!

Хотите узнать прогноз погоды Саран-Пауль? Тогда Вам сюда: Погода Саран-Пауль

Поиск расширенной информации на нашем сайте:

Другие новости

Новости СМИ2

Главная страница сайта

Новости сайта

03.07.2017

Напоминаем, что на нашем специализированном сайте Метеоцентр.Азия вы можете получить высокодетализированные автоматические прогнозы погоды по пунктам России, СНГ и мира в авиационном формате (включающие направление и скорость ветра, видимость, явления погоды, количество и форму облачности, нижнюю и верхнюю границу облачности).


Погода Саран-Пауль - сегодня

Время (UTC), дата Ветер
(°,м/с) 
Видим.   Явления Облачность Т
(°С)
Тd
(°С)
f(%) Тe
(°С)
Pmin
(гПа)
dP
(гПа)
Po
(мм)
O2
(г/м3)
Тmin Tmax R s Состояние
почвы
09 15.08.17 250 (З) 4{10}  20000 м    10/10 600 м кучево-дожд. 
[Cb cap]
+18.3 +12.5 69 +23  1013  0.8  757  284           
12 15.08.17 260 (З) 20000 м  в посл. час ливневой дождь  9/9 600 м кучево-дожд. 
[Cb cap]
+17.6 +15.1 85 +27  1014  758  284           
15 15.08.17 240 (ЮЗ) 10 км  слаб. ливневой дождь  10/10 600 м кучево-дожд. 
[Cb cap]
+16.2 +14.9 92 +26  1014.8  0.8  759  285    +23.2  0.8     
18 15.08.17 230 (ЮЗ) 50000 м  {ливн. осадки}  8/6 600 м кучево-дожд., средняя 
[Cb cap|Ac trans]
+14.1 +13.4 96 +21  1015.2  0.4  759  288           
21 15.08.17 270 (З) 50000 м    3/3 600 м кучево-дожд. 
[Cb cap]
+10.8 +9.8 94 +13  1015.8  0.6  759  293           
00 16.08.17 270 (З) 20000 м    3/3 600 м 
[Sc]
+6.6 +6.1 97 +8  1017  1.1  760  298           
03 16.08.17 240 (ЮЗ) 20000 м    ясно 
+12.3 +9.9 85 +15  1018.3  1.3  761  292  +5.8    0.5     
06 16.08.17 290 (З) 20000 м    4/4 600 м 
[Sc]
+18.2 +7.1 48 +19  1018.8  0.6  762  287           
09 16.08.17 270 (З) 6{11}  20000 м    8/6 600 м кучево-дожд., верхняя 
[Cb cap|Ci fib]
+19.1 +3.7 36 +19  1019.7  0.9  762  286           
12 16.08.17 280 (З) 4{11}  20000 м    8/6 600 м кучево-дожд., верхняя 
[Cb cap|Ci fib]
+16.3 +4.9 47 +16  1020.5  0.8  763  289           
15 16.08.17 270 (З) 20000 м    8/4 600 м кучево-дожд., средняя, верхняя 
[Cb cap|Ac trans|Ci fib]
+14.4 +7.4 63 +15  1020.9  0.4  763  291    +19.6  0.3     
18 16.08.17 220 (ЮЗ) 50000 м    8/4 600 м кучево-дожд., средняя, верхняя 
[Cb cap|Ac trans|Ci fib]
+10.7 +7.1 78 +11  1020.6  -0.4  763  295           
21 16.08.17 220 (ЮЗ) 50000 м    8/3 600 м кучево-дожд., средняя, верхняя 
[Cb cap|Ac trans|Ci fib]
+9.1 +7 87 +9  1020.7  -0.1  763  296           
00 17.08.17 260 (З) 20000 м  {ливн. осадки}  8/4 600 м кучево-дожд., средняя, верхняя 
[Cb cap|Ac trans|Ci fib]
+8.3 +7.8 97 +9  1022.4  1.6  764  297           
03 17.08.17 310 (СЗ) 20000 м    6/3 600 м кучево-дожд., верхняя 
[Cb cap|Ci fib]
+10.7 +7.7 82 +11  1024.1  1.7  765  295  +7.3    0.9     
06 17.08.17 010 (С) 20000 м    8/4 600 м кучево-дожд., средняя, верхняя 
[Cb cap|Ac lent|Ci fib]
+14.8 +5.5 54 +16  1025.4  1.4  766  292           
09 17.08.17 310 (СЗ) 20000 м    6/3 600 м кучево-дожд., средняя, верхняя 
[Cb cap|Ac lent|Ci sp]
+16.4 +3.7 43 +18  1025.9  0.5  767  291           
12 17.08.17 280 (З) 20000 м    3/3 600 м кучево-дожд. 
[Cb cap]
+17.5 +2.4 36 +18  1025.6  -0.3  767  290           
15 17.08.17 280 (З) 20000 м    3/0 средняя 
[Ac lent]
+14.2 +3.5 48 +15  1025.7  0.1  767  293    +17.7       
18 17.08.17 180 (Ю) 50000 м    ясно 
+7 +3.7 79 +8  1026.4  0.6  767  301           
21 17.08.17 120 (ЮВ) 50000 м    3/0 средняя 
[Ac lent]
+3.9 +3.1 95 +5  1026.1  -0.4  767  304           
00 18.08.17 тихо ()   20000 м    10/6 600 м кучево-дожд., средняя 
[Cb cap|Ac lent]
+5 +4.6 97 +5  1024.8  -1.2  766  302           
03 18.08.17 тихо ()   20000 м    9/5 600 м кучево-дожд., средняя, верхняя 
[Cb cap|Ac lent|Ci fib]
+9.5 +7.6 88 +10  1023.6  -1.1  765  297  +2.3         
06 18.08.17 200 (Ю) 20000 м    10/8 600 м кучево-дожд., средняя 
[Cb cap|Ac trans]
+16.6 +9.7 64 +17  1021.9  -1.6  764  288           
09 18.08.17 210 (ЮЗ) 20000 м    10/10 600 м кучево-дожд. 
[Cb cap]
+16 +9 63 +16  1020.7  -1.1  763  289           
Время (UTC), дата Ветер
(°,м/с) 
Видим.   Явления Облачность Т
(°С)
Тd
(°С)
f(%) Тe
(°С)
Pmin
(гПа)
dP
(гПа)
Po
(мм)
O2
(г/м3)
Тmin Tmax R s Состояние
почвы

Для получения пояснительной информации подведите курсор к названию столбца.

ПОГОДА Саран-Пауль - архив

Всё, что Вы хотите узнать о погоде Саран-Пауль - удобно и подробно!

Выберите нужную дату (начиная с 1 января 2015* года) и нажмите кнопку "Найти".
Будут отображены архивные сводки погоды по пункту Саран-Пауль, начиная с указанной даты.


Отображать данные в формате CSV (для использования в таблицах Excel)


Внимание! Наш архив погоды предназначен исключительно для личного некоммерческого использования в познавательных целях. Если Вам необходимы официальные справки о состоянии погоды (для производственных, юридических, коммерческих и т.п. целей), обращайтесь в органы Росгидромета.

*Примечание: данная дата относится к архиву по метеостанциям СССР (Россия, СНГ, Балтия).
Архив по метеостанциям Зарубежной Европы и Азии (кроме Китая) хранится 10 дней, по другим регионам земного шара (Китай, Африка, Америка, Австралия, Океания) - 1 день.

Саран-Пауль - район местоположения метеостанции


Название, широта, долгота, высота метеостанции:
Саран-Пауль 64.3°ш. 60.9°д. 29 м над ур. моря [Российская Федерация]

Дополнительная информация

В oтличие oт бoльшинства пoгoдных сайтoв мы публикуем пoдрoбную метеoинфoрмацию в детальнoм прoфессиoнальнoм фoрмате.

Характеристики температуры и влажнoсти вoздуха измеряются на высoте 2 м в тени вдали oт зданий и деревьев.
Скoрoсть ветра измеряется на высoте 10 м (на урoвне рoста челoвека скoрoсть ветра ниже в 1.5-2 раза). Если метеoстанция нахoдится в гoрoде или в лесу, тo скoрoсть ветра занижена на 2-4 м/с пo сравнению с oткрытым местoм. Скoрoсть ветра над акватoриями крупных рек и oзёр, а также на вершинах хoлмoв на 2-5 м/с выше, чем в oбычных услoвиях.
Атмoсфернoе давление в разных тoчках местнoсти мoжет значительнo oтличаться oт давления на метеoстанции, в зависимoсти oт услoвий рельефа (при пoдъёме на 10 м давление пoнижается примернo на 1 мм рт.ст.).